Home   Weather   Oral   Past weeks
Flag for Kazakhstan

Past Weather in Oral, Kazakhstan — Yesterday and Last 2 Weeks

Now
82 °F

Broken clouds.


Feels Like: 82 °F
Forecast: 86 / 60 °F
Wind: 15 mph from North

Location: Uralsk

Current Time: Jul 19, 2019 at 5:27:11 pm

Latest Report: Jul 19, 2019 at 4:30 pm


Visibility: N/A

Pressure: 29.80 "Hg

Humidity: 40%

Dew Point: 55 °F

Location of OralLocation

Past Weather in Oral — Graph

°F

Oral Temperature Yesterday

Maximum temperature yesterday: 91 °F (at 3:00 pm)
Minimum temperature yesterday: 59 °F (at 5:30 am)
Average temperature yesterday: 78 °F

High & Low Weather Summary for the Past Weeks

 TemperatureHumidityPressure
High93 °F (Jul 9, 2:30 pm)100% (Jul 14, 4:30 am)29.89 "Hg (Jul 14, 4:30 am)
Low48 °F (Jul 6, 6:00 am)20% (Jul 8, 5:30 pm)29.45 "Hg (Jul 13, 12:00 am)
Average73 °F56%29.73 "Hg
* Reported Jul 4 4:00 pm — Jul 19 4:00 pm, Oral. Weather by CustomWeather, © 2019

Note: Actual official high and low records may vary slightly from our data, if they occured in-between our weather recording intervals... More about our weather records

Advertising

Oral Weather History for the Previous 24 Hours

Scroll right to see more
 ConditionsComfort  
Time TempWeatherWind HumidityBarometerVisibility
4:00 pm
Fri, Jul 19
82 °FBroken clouds.13 mph42%29.80 "HgN/A
3:30 pm82 °FBroken clouds.13 mph37%29.80 "HgN/A
3:00 pm84 °FSprinkles. Broken clouds.15 mph40%29.80 "HgN/A
2:30 pm82 °FSprinkles. Broken clouds.10 mph45%29.80 "HgN/A
2:00 pm82 °FBroken clouds.15 mph42%29.80 "HgN/A
1:30 pm84 °FPartly sunny.15 mph43%29.80 "HgN/A
1:00 pm86 °FPassing clouds.15 mph40%29.80 "HgN/A
12:30 pm82 °FSunny.15 mph42%29.80 "Hg10 mi
12:00 pm82 °FSunny.15 mph45%29.80 "Hg10 mi
11:30 am81 °FSunny.15 mph48%29.80 "Hg10 mi
11:00 am81 °FSunny.15 mph51%29.80 "Hg10 mi
10:30 am79 °FSunny.15 mph54%29.80 "Hg10 mi
10:00 am79 °FSunny.13 mph54%29.80 "Hg10 mi
9:30 am77 °FSunny.10 mph61%29.80 "Hg10 mi
9:00 am77 °FSunny.13 mph61%29.80 "Hg10 mi
8:30 am73 °FSunny.10 mph74%29.80 "Hg10 mi
8:00 am72 °FSunny.10 mph78%29.80 "Hg10 mi
7:30 am70 °FSunny.8 mph78%29.80 "Hg10 mi
7:00 am68 °FSunny.3 mph83%29.80 "Hg10 mi
6:30 am64 °FSunny.6 mph88%29.80 "Hg10 mi
6:00 am66 °FSunny.6 mph88%29.80 "Hg10 mi
5:30 am66 °FClear.3 mph88%29.80 "Hg10 mi
5:00 am66 °FClear.8 mph88%29.80 "Hg10 mi
4:00 am66 °FClear.6 mph88%29.77 "Hg10 mi
3:00 am72 °FClear.6 mph73%29.77 "Hg10 mi
2:30 am73 °FClear.8 mph69%29.77 "Hg10 mi
2:00 am73 °FClear.8 mph65%29.77 "Hg10 mi
1:30 am75 °FClear.8 mph61%29.74 "Hg10 mi
1:00 am73 °FClear.6 mph65%29.74 "Hg10 mi
12:30 am73 °FPassing clouds.6 mph65%29.74 "HgN/A
12:00 am75 °FPassing clouds.6 mph61%29.74 "HgN/A
11:30 pm
Thu, Jul 18
73 °FPassing clouds.6 mph65%29.74 "HgN/A
11:00 pm72 °FClear.6 mph69%29.74 "Hg10 mi
10:30 pm77 °FClear.8 mph54%29.74 "Hg10 mi
10:00 pm77 °FClear.6 mph54%29.74 "Hg10 mi
9:30 pm81 °FScattered clouds.6 mph48%29.71 "HgN/A
9:00 pm84 °FScattered clouds.6 mph43%29.71 "HgN/A
8:30 pm88 °FSunny.8 mph35%29.71 "Hg10 mi
8:00 pm90 °FPartly sunny.10 mph33%29.68 "HgN/A
7:30 pm90 °FBroken clouds.8 mph33%29.68 "HgN/A
7:00 pm91 °FBroken clouds.10 mph30%29.68 "HgN/A
6:30 pm91 °FBroken clouds.13 mph28%29.68 "HgN/A
6:00 pm91 °FScattered clouds.10 mph28%29.68 "HgN/A
5:30 pm91 °FPassing clouds.10 mph30%29.68 "HgN/A
5:00 pm91 °FPassing clouds.10 mph30%29.68 "HgN/A
Weather by CustomWeather, © 2019

See weather overview